KC4BAM Weather Reports


Display with metric or nautical units.
time (UTC)temp
F
wind
direction
speed
MPH
gust
MPH
rain 1hr
in
rain 24hr
in
rain mn
in
humidity
%
barometer
mb
20260510225131 72 248 2.0 3.0 0.00 0.00 0.00 66 1006.9
20260510224627 73 219 2.0 2.0 0.00 0.00 0.00 66 1006.8
20260510224124 73 181 1.0 2.0 0.00 0.00 0.00 66 1006.7
20260510223622 73 193 1.0 2.0 0.00 0.00 0.00 66 1006.8
20260510223119 74 196 1.0 2.0 0.00 0.00 0.00 66 1006.6
20260510222615 74 199 1.0 1.0 0.00 0.00 0.00 66 1006.6
20260510222113 74 195 1.0 2.0 0.00 0.00 0.00 65 1006.6
20260510221612 74 193 1.0 3.0 0.00 0.00 0.00 65 1006.7
20260510221109 75 190 1.0 2.0 0.00 0.00 0.00 65 1006.5
20260510220606 75 228 2.0 2.0 0.00 0.00 0.00 64 1006.6
20260510215559 77 212 2.0 2.0 0.00 0.00 0.00 62 1006.4
20260510215057 77 215 2.0 3.0 0.00 0.00 0.00 60 1006.5
20260510214554 77 237 2.0 3.0 0.00 0.00 0.00 58 1006.5
20260510214050 78 195 0.0 1.0 0.00 0.00 0.00 54 1006.2
20260510213548 78 190 0.0 1.0 0.00 0.00 0.00 53 1006.1
20260510213043 78 194 0.0 1.0 0.00 0.00 0.00 52 1006.3
20260510212540 78 192 0.0 1.0 0.00 0.00 0.00 52 1006.3
20260510212038 78 202 1.0 2.0 0.00 0.00 0.00 52 1006.3
20260510211535 79 207 1.0 2.0 0.00 0.00 0.00 51 1006.2
20260510211035 80 194 0.0 0.0 0.00 0.00 0.00 50 1006.4
20260510210532 82 200 1.0 1.0 0.00 0.00 0.00 50 1006.4
20260510210027 81 211 0.0 1.0 0.00 0.00 0.00 49 1006.4
20260510205526 81 204 1.0 2.0 0.00 0.00 0.00 49 1006.4
20260510205022 80 195 0.0 2.0 0.00 0.00 0.00 48 1006.3
20260510204519 81 231 1.0 2.0 0.00 0.00 0.00 49 1006.5
20260510204015 80 194 0.0 2.0 0.00 0.00 0.00 50 1006.6
20260510203512 81 196 1.0 2.0 0.00 0.00 0.00 48 1006.4
20260510203009 80 209 0.0 1.0 0.00 0.00 0.00 48 1006.4
20260510202502 81 197 0.0 1.0 0.00 0.00 0.00 51 1006.4
20260510201959 80 204 0.0 1.0 0.00 0.00 0.00 49 1006.4
20260510201457 81 208 1.0 1.0 0.00 0.00 0.00 49 1006.6
20260510200953 80 204 1.0 2.0 0.00 0.00 0.00 47 1006.6
20260510200449 81 209 1.0 2.0 0.00 0.00 0.00 47 1006.6
20260510195947 83 197 0.0 1.0 0.00 0.00 0.00 50 1006.6
20260510195445 81 207 1.0 1.0 0.00 0.00 0.00 50 1006.4
20260510194944 81 193 0.0 3.0 0.00 0.00 0.00 48 1006.5
20260510194441 80 185 0.0 2.0 0.00 0.00 0.00 50 1006.6
20260510193936 80 212 1.0 3.0 0.00 0.00 0.00 50 1006.6
20260510193433 80 202 1.0 1.0 0.00 0.00 0.00 49 1006.5
20260510192928 80 195 0.0 1.0 0.00 0.00 0.00 50 1006.6
20260510192423 80 194 1.0 2.0 0.00 0.00 0.00 50 1006.7
20260510191919 80 191 0.0 1.0 0.00 0.00 0.00 51 1006.6
20260510191415 81 130 0.0 2.0 0.00 0.00 0.00 53 1006.6
20260510190913 81 206 0.0 0.0 0.00 0.00 0.00 51 1006.7
20260510190410 80 197 1.0 1.0 0.00 0.00 0.00 53 1006.6
20260510185907 80 180 0.0 0.0 0.00 0.00 0.00 52 1006.4
20260510185404 80 211 1.0 1.0 0.00 0.00 0.00 53 1006.6
20260510184901 79 210 1.0 2.0 0.00 0.00 0.00 52 1006.6
20260510184359 79 210 1.0 2.0 0.00 0.00 0.00 54 1006.7
20260510183858 78 210 1.0 1.0 0.00 0.00 0.00 55 1006.7
20260510183355 78 195 0.0 2.0 0.00 0.00 0.00 55 1006.6
20260510182850 78 186 1.0 1.0 0.00 0.00 0.00 55 1006.8
20260510182346 79 203 2.0 2.0 0.00 0.00 0.00 54 1006.7
20260510181842 80 194 0.0 2.0 0.00 0.00 0.00 52 1006.7
20260510181340 80 199 1.0 2.0 0.00 0.00 0.00 53 1006.6
20260510180836 79 192 0.0 1.0 0.00 0.00 0.00 53 1006.9
20260510180333 78 191 0.0 1.0 0.00 0.00 0.00 55 1006.8
20260510175830 78 208 1.0 1.0 0.00 0.00 0.00 56 1006.8
20260510175326 78 204 1.0 2.0 0.00 0.00 0.00 56 1006.8
20260510174822 78 194 1.0 2.0 0.00 0.00 0.00 54 1007.0
20260510174320 79 200 0.0 1.0 0.00 0.00 0.00 54 1007.0
20260510173816 79 211 1.0 2.0 0.00 0.00 0.00 54 1007.2
20260510173312 78 216 1.0 2.0 0.00 0.00 0.00 54 1007.2
20260510172808 78 204 1.0 2.0 0.00 0.00 0.00 55 1007.2
20260510172306 79 226 1.0 2.0 0.00 0.00 0.00 54 1007.4
20260510171800 79 200 2.0 2.0 0.00 0.00 0.00 54 1007.3
20260510171258 80 209 1.0 2.0 0.00 0.00 0.00 52 1007.3
20260510170754 79 219 1.0 2.0 0.00 0.00 0.00 53 1007.2
20260510170250 79 223 1.0 2.0 0.00 0.00 0.00 52 1007.1
20260510165746 79 218 1.0 2.0 0.00 0.00 0.00 52 1007.1
20260510165242 79 210 2.0 3.0 0.00 0.00 0.00 51 1007.0
20260510164740 78 195 1.0 1.0 0.00 0.00 0.00 49 1007.0
20260510164238 79 196 0.0 2.0 0.00 0.00 0.00 50 1007.2
20260510163737 80 188 0.0 4.0 0.00 0.00 0.00 49 1007.0
20260510163233 79 184 0.0 2.0 0.00 0.00 0.00 50 1006.9
20260510162733 79 200 0.0 1.0 0.00 0.00 0.00 51 1007.0
20260510162231 79 194 0.0 1.0 0.00 0.00 0.00 51 1006.8
20260510161726 79 191 1.0 1.0 0.00 0.00 0.00 50 1006.9
20260510161222 80 177 1.0 4.0 0.00 0.00 0.00 48 1007.1
20260510160720 80 199 1.0 3.0 0.00 0.00 0.00 49 1006.8
20260510160215 79 200 3.0 3.0 0.00 0.00 0.00 50 1006.8
20260510155711 79 202 0.0 1.0 0.00 0.00 0.00 51 1006.8
20260510155207 78 201 2.0 7.0 0.00 0.00 0.00 49 1006.8
20260510154703 78 188 0.0 4.0 0.00 0.00 0.00 51 1006.8
20260510154159 78 196 2.0 4.0 0.00 0.00 0.00 51 1006.5
20260510153654 78 213 3.0 9.0 0.00 0.00 0.00 50 1006.4
20260510153151 77 194 1.0 6.0 0.00 0.00 0.00 51 1006.5
20260510152648 77 226 4.0 8.0 0.00 0.00 0.00 53 1006.4
20260510152143 77 211 4.0 6.0 0.00 0.00 0.00 54 1006.4
20260510151640 77 189 1.0 4.0 0.00 0.00 0.00 54 1006.3
20260510151139 76 215 4.0 7.0 0.00 0.00 0.00 53 1006.3
20260510150640 76 185 4.0 4.0 0.00 0.00 0.00 57 1006.3
20260510150135 75 163 3.0 4.0 0.00 0.00 0.00 60 1006.2
20260510145632 75 201 3.0 4.0 0.00 0.00 0.00 59 1006.1
20260510145129 74 217 2.0 3.0 0.00 0.00 0.00 60 1006.3
20260510144624 74 197 2.0 3.0 0.00 0.00 0.00 60 1006.4
20260510144121 73 232 3.0 4.0 0.00 0.00 0.00 61 1006.4
20260510143616 74 196 3.0 8.0 0.00 0.00 0.00 61 1006.4
20260510143113 73 186 0.0 3.0 0.00 0.00 0.00 63 1006.6
20260510142610 73 205 4.0 6.0 0.00 0.00 0.00 63 1006.7
20260510142106 72 226 3.0 4.0 0.00 0.00 0.00 64 1006.7
20260510141603 71 220 5.0 8.0 0.00 0.00 0.00 64 1006.5
20260510141102 71 194 3.0 4.0 0.00 0.00 0.00 65 1006.6
20260510140557 71 185 4.0 6.0 0.00 0.00 0.00 67 1006.6
20260510140056 70 188 0.0 3.0 0.00 0.00 0.00 70 1006.6
20260510135553 69 192 2.0 7.0 0.00 0.00 0.00 70 1006.4
20260510135049 69 241 3.0 4.0 0.00 0.00 0.00 71 1006.5
20260510134546 68 201 3.0 6.0 0.00 0.00 0.00 72 1006.3
20260510134043 68 233 4.0 7.0 0.00 0.00 0.00 72 1006.3
20260510133539 68 197 3.0 6.0 0.00 0.00 0.00 74 1006.5
20260510133035 67 174 2.0 8.0 0.00 0.00 0.00 76 1006.5
20260510132532 66 205 2.0 3.0 0.00 0.00 0.00 78 1006.5
20260510132029 65 183 2.0 4.0 0.00 0.00 0.00 79 1006.5
20260510131526 64 186 2.0 3.0 0.00 0.00 0.00 80 1006.2
20260510131023 64 202 2.0 4.0 0.00 0.00 0.00 80 1006.2
20260510130519 64 203 2.0 3.0 0.00 0.00 0.00 80 1006.5
20260510130017 64 221 2.0 3.0 0.00 0.00 0.00 80 1006.3
20260510125513 64 180 3.0 4.0 0.00 0.00 0.00 80 1006.2
20260510125010 64 190 2.0 4.0 0.00 0.00 0.00 80 1006.5
20260510124506 63 202 2.0 2.0 0.00 0.00 0.00 81 1006.2
20260510124003 63 237 4.0 6.0 0.00 0.00 0.00 81 1006.3
20260510123458 62 207 0.0 0.0 0.00 0.00 0.00 82 1006.3
20260510122954 61 209 0.0 0.0 0.00 0.00 0.00 84 1006.2
20260510122450 60 205 0.0 0.0 0.00 0.00 0.00 85 1006.3
20260510121947 60 205 0.0 0.0 0.00 0.00 0.00 86 1006.2
20260510121444 60 205 0.0 0.0 0.00 0.00 0.00 87 1006.2
20260510120941 59 204 0.0 0.0 0.00 0.00 0.00 88 1005.9
20260510120439 57 206 0.0 0.0 0.00 0.00 0.00 90 1006.0
20260510115934 57 205 0.0 0.0 0.00 0.00 0.00 91 1005.8
20260510115432 56 205 0.0 0.0 0.00 0.00 0.00 91 1005.9
20260510114927 56 207 0.0 0.0 0.00 0.00 0.00 92 1005.9
20260510114425 55 205 0.0 0.0 0.00 0.00 0.00 92 1006.0
20260510113919 55 205 0.0 0.0 0.00 0.00 0.00 92 1005.8
20260510113415 54 204 0.0 0.0 0.00 0.00 0.00 92 1005.9
20260510112913 54 204 0.0 0.0 0.00 0.00 0.00 92 1005.5
20260510112410 54 205 0.0 0.0 0.00 0.00 0.00 92 1005.7
20260510111906 54 205 0.0 0.0 0.00 0.00 0.00 92 1005.5
20260510111403 53 206 0.0 0.0 0.00 0.00 0.00 92 1005.7
20260510110858 53 209 0.0 0.0 0.00 0.00 0.00 92 1005.5
20260510110355 53 204 0.0 0.0 0.00 0.00 0.00 92 1005.0
20260510105851 52 204 0.0 0.0 0.00 0.00 0.00 92 1005.1
20260510105350 52 205 0.0 0.0 0.00 0.00 0.00 91 1005.0
20260510104847 53 207 0.0 0.0 0.00 0.00 0.00 91 1005.2
20260510104344 53 204 0.0 0.0 0.00 0.00 0.00 91 1004.8
20260510103840 53 204 0.0 0.0 0.00 0.00 0.00 91 1004.9
20260510103337 53 204 0.0 0.0 0.00 0.00 0.00 91 1004.7
20260510102833 53 204 0.0 0.0 0.00 0.00 0.00 90 1004.7
20260510102328 53 204 0.0 0.0 0.00 0.00 0.00 90 1004.5
20260510101826 53 204 0.0 0.0 0.00 0.00 0.00 90 1004.4
20260510101324 54 204 0.0 0.0 0.00 0.00 0.00 90 1004.4
20260510100820 54 204 0.0 0.0 0.00 0.00 0.00 90 1004.4
20260510100318 54 204 0.0 0.0 0.00 0.00 0.00 89 1004.0
20260510095813 54 204 0.0 0.0 0.00 0.00 0.00 89 1004.1
20260510095309 55 204 0.0 0.0 0.00 0.00 0.00 89 1004.0
20260510094809 55 204 0.0 0.0 0.00 0.00 0.00 89 1004.1
20260510094304 55 204 0.0 0.0 0.00 0.00 0.00 89 1004.2
20260510093800 55 204 0.0 0.0 0.00 0.00 0.00 88 1004.2
20260510093257 55 204 0.0 0.0 0.00 0.00 0.00 88 1004.1
20260510092753 55 204 0.0 0.0 0.00 0.00 0.00 87 1003.8
20260510092249 57 204 0.0 0.0 0.00 0.00 0.00 87 1004.0
20260510091745 57 208 0.0 0.0 0.00 0.00 0.00 88 1003.9
20260510091242 54 206 0.0 0.0 0.00 0.00 0.00 90 1004.0
20260510090738 54 205 0.0 0.0 0.00 0.00 0.00 90 1003.8
20260510090236 55 205 0.0 0.0 0.00 0.00 0.00 90 1003.8
20260510085731 55 205 0.0 0.0 0.00 0.00 0.00 90 1003.8
20260510085225 55 205 0.0 0.0 0.00 0.00 0.00 90 1003.6
20260510084722 55 205 0.0 0.0 0.00 0.00 0.00 90 1003.5
20260510084219 55 205 0.0 0.0 0.00 0.00 0.00 90 1003.5
20260510083715 55 205 0.0 0.0 0.00 0.00 0.00 90 1003.5
20260510083213 55 204 0.0 0.0 0.00 0.00 0.00 90 1003.6
20260510082708 55 204 0.0 0.0 0.00 0.00 0.00 90 1003.7
20260510082204 55 204 0.0 0.0 0.00 0.00 0.00 90 1003.6
20260510081658 55 203 0.0 0.0 0.00 0.00 0.00 90 1003.5
20260510081155 54 204 0.0 0.0 0.00 0.00 0.00 90 1003.6
20260510080654 54 204 0.0 0.0 0.00 0.00 0.00 90 1003.6
20260510080151 54 204 0.0 0.0 0.00 0.00 0.00 90 1003.6
20260510075648 54 204 0.0 0.0 0.00 0.00 0.00 90 1003.6
20260510075146 54 204 0.0 0.0 0.00 0.00 0.00 90 1003.7
20260510074643 54 204 0.0 0.0 0.00 0.00 0.00 90 1003.6
20260510074138 54 204 0.0 0.0 0.00 0.00 0.00 89 1003.4
20260510073635 54 204 0.0 0.0 0.00 0.00 0.00 89 1003.5
20260510073131 54 205 0.0 0.0 0.00 0.00 0.00 89 1003.4
20260510072628 55 205 0.0 0.0 0.00 0.00 0.00 89 1003.2
20260510072124 55 205 0.0 0.0 0.00 0.00 0.00 89 1003.2
20260510071620 55 204 0.0 0.0 0.00 0.00 0.00 89 1003.1
20260510071118 55 204 0.0 0.0 0.00 0.00 0.00 89 1003.1
20260510070614 55 204 0.0 0.0 0.00 0.00 0.00 88 1002.9
20260510070112 55 204 0.0 0.0 0.00 0.00 0.00 88 1003.1
20260510065608 55 204 0.0 0.0 0.00 0.00 0.00 88 1003.1
20260510065104 55 204 0.0 0.0 0.00 0.00 0.00 88 1003.1
20260510064601 55 205 0.0 0.0 0.00 0.00 0.00 87 1003.1
20260510064058 55 204 0.0 0.0 0.00 0.00 0.00 87 1003.2
20260510063555 56 205 0.0 0.0 0.00 0.00 0.00 87 1003.2
20260510063052 56 205 0.0 0.0 0.00 0.00 0.00 87 1003.2
20260510062547 56 205 0.0 0.0 0.00 0.00 0.00 86 1003.2
20260510062043 56 205 0.0 0.0 0.00 0.00 0.00 86 1003.2
20260510061539 56 205 0.0 0.0 0.00 0.00 0.00 86 1003.2
20260510061036 56 204 0.0 0.0 0.00 0.00 0.00 86 1003.2
20260510060533 57 205 0.0 0.0 0.00 0.00 0.00 85 1003.5
20260510060029 57 205 0.0 0.0 0.00 0.00 0.00 85 1003.4
20260510055525 57 205 0.0 0.0 0.00 0.00 0.00 85 1003.4
20260510055024 57 205 0.0 0.0 0.00 0.00 0.00 85 1003.3
20260510054519 57 204 0.0 0.0 0.00 0.00 0.00 85 1003.3
20260510054014 57 204 0.0 0.0 0.00 0.00 0.00 84 1003.3
20260510053509 57 205 0.0 0.0 0.00 0.00 0.00 84 1003.3
20260510053006 58 205 0.0 0.0 0.00 0.00 0.00 84 1003.2
20260510052502 58 205 0.0 0.0 0.00 0.00 0.00 83 1003.1
20260510051958 58 204 0.0 0.0 0.00 0.00 0.00 83 1003.1
20260510051454 58 204 0.0 0.0 0.00 0.00 0.00 82 1003.0
20260510050950 58 204 0.0 0.0 0.00 0.00 0.00 82 1002.9
20260510050448 59 204 0.0 0.0 0.00 0.00 0.00 82 1003.3
20260510045945 59 204 0.0 0.0 0.00 0.00 0.00 82 1003.2
20260510045442 59 206 0.0 0.0 0.00 0.00 0.00 81 1003.1
20260510044938 59 206 0.0 0.0 0.00 0.00 0.00 81 1003.2
20260510044436 59 206 0.0 0.0 0.00 0.00 0.00 81 1002.9
20260510043932 59 206 0.0 0.0 0.00 0.00 0.00 80 1003.0
20260510043428 59 206 0.0 0.0 0.00 0.00 0.00 80 1003.1
20260510042926 59 206 0.0 0.0 0.00 0.00 0.00 80 1003.0
20260510042422 59 206 0.0 0.0 0.00 0.00 0.00 80 1003.1
20260510041918 59 206 0.0 0.0 0.00 0.00 0.00 80 1003.1
20260510041415 59 207 0.0 0.0 0.00 0.00 0.00 80 1002.9
20260510040913 59 206 0.0 0.0 0.00 0.00 0.00 79 1002.9
20260510040409 60 206 0.0 0.0 0.00 0.00 0.00 79 1002.9
20260510035905 60 206 0.0 0.0 0.00 0.00 0.00 78 1002.8
20260510035401 60 206 0.0 0.0 0.00 0.00 0.00 76 1003.0
20260510034856 60 206 0.0 0.0 0.00 0.00 0.00 75 1002.8
20260510034355 60 206 0.0 0.0 0.00 0.00 0.00 75 1002.9
20260510033851 60 206 0.0 0.0 0.00 0.00 0.00 75 1002.8
20260510033348 61 206 0.0 0.0 0.00 0.00 0.00 74 1002.9
20260510032844 61 206 0.0 0.0 0.00 0.00 0.00 74 1003.0
20260510032341 61 206 0.0 0.0 0.00 0.00 0.00 74 1002.9
20260510031837 61 206 0.0 0.0 0.00 0.00 0.00 72 1003.0
20260510031332 62 207 0.0 0.0 0.00 0.00 0.00 72 1002.9
20260510030832 62 214 0.0 0.0 0.00 0.00 0.00 73 1003.0
20260510030329 63 210 0.0 0.0 0.00 0.00 0.00 72 1003.0
20260510025826 63 210 0.0 0.0 0.00 0.00 0.00 69 1002.9
20260510025324 63 210 0.0 0.0 0.00 0.00 0.00 68 1002.8
20260510024820 63 210 0.0 0.0 0.00 0.00 0.00 67 1002.9
20260510024317 64 210 0.0 0.0 0.00 0.00 0.00 67 1002.8
20260510023813 64 210 0.0 0.0 0.00 0.00 0.00 66 1002.8
20260510023310 64 210 0.0 0.0 0.00 0.00 0.00 64 1003.0
20260510022807 65 210 0.0 0.0 0.00 0.00 0.00 63 1002.6
20260510022307 65 211 0.0 0.0 0.00 0.00 0.00 62 1002.7
20260510021805 66 210 0.0 0.0 0.00 0.00 0.00 62 1002.5
20260510021304 66 201 0.0 0.0 0.00 0.00 0.00 61 1002.6
20260510020759 67 203 0.0 0.0 0.00 0.00 0.00 60 1002.5
20260510020259 68 200 0.0 0.0 0.00 0.00 0.00 60 1002.4
20260510015756 69 201 0.0 0.0 0.00 0.00 0.00 57 1002.4
20260510015252 70 201 0.0 0.0 0.00 0.00 0.00 56 1002.0
20260510014747 69 205 0.0 0.0 0.00 0.00 0.00 57 1002.2
20260510014244 70 194 0.0 0.0 0.00 0.00 0.00 57 1002.0
20260510013740 71 189 0.0 0.0 0.00 0.00 0.00 55 1002.0
20260510013236 72 189 0.0 0.0 0.00 0.00 0.00 53 1002.0
20260510012731 73 198 1.0 2.0 0.00 0.00 0.00 49 1001.8
20260510012226 73 201 2.0 2.0 0.00 0.00 0.00 48 1001.6
20260510011720 73 189 1.0 2.0 0.00 0.00 0.00 47 1001.7
20260510011216 73 197 1.0 1.0 0.00 0.00 0.00 48 1001.6
20260510010713 73 199 1.0 1.0 0.00 0.00 0.00 48 1001.5
20260510010209 74 201 1.0 2.0 0.00 0.00 0.00 47 1001.6
20260510005706 74 203 2.0 2.0 0.00 0.00 0.00 47 1001.4
20260510005202 74 222 2.0 2.0 0.00 0.00 0.00 46 1001.4
20260510004701 75 193 1.0 3.0 0.00 0.00 0.00 46 1001.5
20260510004158 75 208 2.0 2.0 0.00 0.00 0.00 46 1001.2
20260510003656 75 197 1.0 2.0 0.00 0.00 0.00 46 1001.2
20260510003151 75 200 2.0 2.0 0.00 0.00 0.00 45 1001.1
20260510002646 76 207 1.0 2.0 0.00 0.00 0.00 44 1001.1
20260510002143 76 224 2.0 3.0 0.00 0.00 0.00 44 1001.3
20260510001640 76 208 2.0 4.0 0.00 0.00 0.00 43 1000.9
20260510001139 76 207 2.0 3.0 0.00 0.00 0.00 44 1001.0
20260510000638 76 211 1.0 3.0 0.00 0.00 0.00 44 1001.0
20260510000136 76 219 2.0 4.0 0.00 0.00 0.00 43 1001.0
20260509235632 76 227 3.0 4.0 0.00 0.00 0.00 43 1000.9
20260509235129 76 200 1.0 2.0 0.00 0.00 0.00 43 1001.0
20260509234625 77 192 0.0 0.0 0.00 0.00 0.00 41 1000.7
20260509234123 77 219 2.0 3.0 0.00 0.00 0.00 40 1000.8
20260509233620 76 195 1.0 1.0 0.00 0.00 0.00 40 1001.1
20260509233118 76 188 0.0 0.0 0.00 0.00 0.00 40 1000.8
20260509232614 76 192 1.0 2.0 0.00 0.00 0.00 42 1001.0
20260509232111 76 188 0.0 0.0 0.00 0.00 0.00 44 1000.8
20260509231607 76 189 0.0 0.0 0.00 0.00 0.00 43 1000.9
20260509231105 77 185 0.0 0.0 0.00 0.00 0.00 44 1000.9
20260509230601 78 194 0.0 2.0 0.00 0.00 0.00 40 1000.8
20260509230059 77 193 0.0 1.0 0.00 0.00 0.00 40 1001.0
20260509225554 77 191 0.0 0.0 0.00 0.00 0.00 43 1000.7